Location: La Bitarelle
(45.3167°N, 1.8333°E)
Time: 23:30:11
(UTC+00:00)

Daily predictions for brighter satellites

Satellite Brightness Start Highest point End
(mag) Time Altitude Azimuth Time Altitude Azimuth Time Altitude Azimuth
FengYun 1-2 T 4.4 16:32:23 10° SE 16:37:45 51° ENE 16:43:07 10° N
Cosmos 2369 4.1 16:34:07 10° NNW 16:39:32 41° NE 16:44:55 10° SE
SJ 16-02 3.7 16:36:19 10° NW 16:40:05 28° W 16:43:50 10° SSW
Cosmos 1812 4.4 16:43:01 10° ESE 16:45:19 15° E 16:47:37 10° NE
Meteor PRIRODA 3.5 16:41:50 10° SSE 16:45:27 72° ENE 16:49:03 10° N
NOAA 12 4.1 16:40:56 10° SSE 16:46:14 71° ENE 16:51:32 10° N
ERBS 4.5 16:44:44 10° NW 16:46:37 15° NNW 16:48:31 10° NNE
SL-16 R/B 3.8 16:44:14 10° N 16:47:19 15° NE 16:50:22 10° ENE
CORIOLIS 4.4 16:44:40 10° SE 16:49:48 46° ENE 16:54:59 10° N
Cosmos 2082 Rocket 2.9 16:45:47 10° SSE 16:50:52 35° ESE 16:55:56 10° NE
Meteor 1-25 Rocket 4.2 16:50:22 10° N 16:55:57 69° ENE 17:01:32 10° SSE
Cosmos 468 Rocket 4.0 16:50:55 10° SSW 16:56:04 90° ESE 17:01:19 10° NNE
Cosmos 1500 Rocket 3.6 16:52:48 10° N 16:57:16 88° ENE 17:01:40 10° S
USA 306 4.3 16:56:49 10° NW 17:00:21 25° N 17:03:34 12° NE
Cosmos 1898 Rocket 3.5 16:57:21 10° NNW 17:02:39 89° WSW 17:07:51 10° SSE
CZ-4B DEB 4.4 16:57:20 10° SE 17:02:39 52° ENE 17:07:58 10° N
Cosmos 2278 4.2 16:57:54 10° NNW 17:03:10 36° NE 17:08:23 10° ESE
USA 276 4.3 17:00:30 10° W 17:03:13 28° SW 17:05:57 10° SSE
Cosmos 2221 3.9 16:59:30 10° SSW 17:03:33 41° WNW 17:07:38 10° N
Cosmos 1939 Rocket 2.8 17:00:12 10° SSE 17:04:17 72° ENE 17:08:21 10° N
Cosmos 1602 3.7 17:00:31 10° N 17:04:21 61° E 17:08:11 10° SSE
Sich 1 3.2 17:00:19 10° N 17:04:30 48° ENE 17:08:41 10° SSE
ARGOS 4.1 17:01:52 10° ESE 17:06:14 26° ENE 17:10:36 10° N
Nadezhda 4 Rocket 4.4 17:00:06 10° NNW 17:06:24 70° W 17:12:40 10° S
Cosmos 1805 Rocket 3.5 17:04:52 10° N 17:09:12 70° E 17:13:31 10° SSE
Cosmos 1833 Rocket 2.8 17:04:58 10° SSW 17:10:35 80° WNW 17:16:16 10° NNE
COSMOS 2406 3.2 17:08:45 10° SSW 17:14:30 86° ESE 17:20:16 10° NNE
NOSS 2-2 (C) 4.3 17:11:26 10° NNW 17:16:36 69° NE 17:23:52 10° SE
deb Chang Zheng 4 4.4 17:13:46 10° SE 17:17:27 29° ENE 17:21:10 10° N
USA 307 4.2 17:16:06 10° NW 17:19:40 25° N 17:21:59 16° NE
CZ-2C R/B 3.9 17:16:04 10° S 17:20:48 49° W 17:25:27 10° NNW
Cosmos 1782 2.7 17:18:21 10° S 17:22:19 71° E 17:26:18 10° NNE
USA 267 3.4 17:16:34 12° NE 17:22:43 76° NNW 17:29:14 10° WSW
Cosmos 1092 Rocket 4.1 17:17:07 10° N 17:23:30 86° W 17:29:49 10° S
Cosmos 1428 Rocket 4.4 17:18:04 10° N 17:24:14 85° E 17:30:24 10° S
CZ-2C R/B 3.1 17:22:42 10° NNE 17:27:29 36° E 17:32:13 10° SSE
Cosmos 1763 Rocket 4.4 17:22:43 10° SW 17:27:36 47° WNW 17:32:33 10° N
CZ-2D R/B 3.2 17:24:58 10° SSE 17:28:44 61° ENE 17:32:31 10° N
Cosmos 1500 3.0 17:25:19 10° N 17:29:04 78° E 17:32:47 10° SSE
CZ-4C R/B 3.0 17:23:38 10° NW 17:30:45 63° NE 17:39:04 10° SE
H-2A R/B 2.0 17:26:53 10° SSE 17:31:58 63° ENE 17:36:57 10° N
Meteor 2-16 Rocket 4.5 17:26:20 10° N 17:32:22 56° ENE 17:38:21 10° SSE
CZ-4B R/B 3.3 17:28:15 10° SE 17:33:27 50° ENE 17:38:35 10° N
Cosmos 841 Rocket 3.4 17:29:43 10° SSW 17:34:53 89° WNW 17:40:04 10° NNE
PAYLOAD B 4.2 17:29:39 10° SSE 17:35:14 75° ENE 17:40:50 10° NNW
Cosmos 1937 Rocket 4.2 17:35:42 10° NNW 17:40:56 58° WSW 17:46:07 10° S
SMAP 3.9 17:37:03 10° S 17:41:36 53° W 17:46:10 10° NNW
USA 308 4.1 17:38:46 10° NW 17:42:24 27° N 17:43:39 23° NE
Lacrosse 5 rocket 2.0 17:40:16 10° NW 17:43:54 35° NNE 17:44:49 31° ENE
Cosmos 2142 Rocket 4.4 17:37:57 10° S 17:44:02 70° E 17:50:15 10° NNE
COSMO-SKYMED 1 2.8 17:41:39 17° NNE 17:44:49 48° E 17:49:01 10° S
Cosmos 921 Rocket 3.7 17:41:22 10° SSE 17:45:01 30° E 17:45:22 29° E
Cosmos 1125 Rocket 4.2 17:40:54 10° N 17:45:35 32° ENE 17:47:31 25° E
COSMOS 2455 3.0 17:41:15 10° SW 17:47:17 77° WNW 17:52:28 15° NNE
Cosmos 372 Rocket 4.2 17:43:39 10° NNW 17:48:53 77° WSW 17:54:07 10° SSE
Cosmos 2279 Rocket 3.9 17:43:17 10° S 17:49:27 73° E 17:55:39 10° NNE
ATLAS 2AS CENTAUR R/B 4.5 17:45:34 10° NW 17:50:36 18° N 17:54:01 14° NNE
Cosmos 1633 Rocket 2.9 17:47:14 10° N 17:51:36 70° E 17:55:59 10° SSE
ISS -3.6 17:48:15 10° WNW 17:51:39 75° SSW 17:53:03 32° SE
Cosmos 2360 Rocket 3.6 17:48:53 10° N 17:52:12 19° NE 17:52:12 19° NE
Cosmos 44 Rocket 3.4 17:49:11 10° NNW 17:53:59 49° NE 17:56:04 29° ESE
YAOGAN 1 4.5 17:56:50 15° NNE 17:56:50 15° NNE 17:57:48 10° N
Cosmos 2266 Rocket 4.3 17:48:17 10° N 17:54:24 45° ENE 18:00:30 10° SSE
USA 234 3.4 17:49:32 10° SE 17:56:05 75° SW 18:02:38 10° NW
Meteor 1-10 Rocket 4.5 17:51:20 10° SSE 17:56:49 46° E 18:00:37 19° NNE
SL-24 R/B - RUBIN 2 4.1 17:53:13 10° NW 17:57:38 57° WSW 18:01:50 10° SSE
Meteor 1-11 Rocket 4.1 17:52:51 10° N 17:58:08 39° ENE 18:03:28 10° SE
Cosmos 1666 2.5 17:54:36 10° N 17:58:21 87° W 18:02:03 10° S
Cosmos 1151 Rocket 3.0 17:56:04 10° S 18:00:23 83° W 18:04:41 11° N
CZ-4 R/B 4.3 18:02:17 10° SSE 18:06:23 72° ENE 18:10:32 10° N
USA 305 3.9 18:04:50 10° NW 18:08:40 31° NNE 18:08:40 31° NNE
SKYMED 3 4.4 18:06:03 21° NNE 18:08:59 87° E 18:13:19 10° SSW
Cosmos 1900 4.2 18:05:18 10° SSW 18:10:09 77° ESE 18:11:48 42° NE
X-37B 3.2 18:09:41 10° S 18:10:00 11° S 18:10:00 11° S
Okean O Rocket 1.5 18:07:47 10° SSE 18:12:14 87° ENE 18:16:43 10° NNW
Feng Yun 1-1 Rocket 4.3 18:07:39 10° SSE 18:13:28 60° ENE 18:19:14 10° N
Cosmos 2322 Rocket 2.7 18:08:41 10° NNW 18:13:54 38° NE 18:13:54 38° NE
Meteor 2-15 4.3 18:08:06 10° S 18:14:10 71° E 18:20:14 10° NNE
Landsat 5 3.2 18:16:56 66° NE 18:17:22 75° ESE 18:21:20 10° S
Cosmos 1666 Rocket 4.5 18:14:01 10° NNW 18:18:19 50° W 18:22:33 10° SSW
Cosmos 1980 Rocket 3.2 18:13:50 10° NW 18:19:14 46° WSW 18:24:34 10° S
Cosmos 1812 4.0 18:17:05 10° SSW 18:20:42 39° WNW 18:23:53 13° N
Cosmos 1328 Rocket 3.8 18:16:41 10° SSW 18:21:07 71° W 18:24:02 21° N
Cosmos 1470 Rocket 3.4 18:17:15 10° N 18:21:44 85° E 18:26:13 10° S
SJ-11-01 4.4 18:17:24 10° S 18:22:09 75° WSW 18:26:55 10° NNW
Spot 2 4.5 18:20:29 34° SE 18:22:34 58° ENE 18:27:36 10° N
APEX 4.4 18:19:48 10° S 18:22:09 30° S 18:22:09 30° S
SL-16 R/B 2.1 18:26:53 10° NNW 18:32:33 67° ENE 18:33:20 59° ESE
SKYMED 2 4.3 18:30:16 22° N 18:32:54 53° WNW 18:37:06 10° SSW
Cosmos 2082 Rocket 3.3 18:29:32 10° SW 18:34:52 40° NW 18:38:46 17° N
Cosmos 1655 Rocket 4.0 18:29:33 10° N 18:36:00 87° W 18:42:21 10° S
Cosmos 2298 Rocket 3.9 18:30:39 10° NNW 18:36:00 90° W 18:38:49 29° SSE
ATLAS CENTAUR R/B 3.5 18:30:01 10° W 18:36:40 31° NW 18:37:45 28° N
USA 306 4.3 18:37:01 10° NW 18:39:34 30° NNW 18:39:34 30° NNW
DMSP B5D2-2 4.3 18:42:38 55° SSE 18:42:38 55° SSE 18:46:51 10° S
CZ-2C R/B 3.6 18:40:10 10° SSW 18:42:01 16° S 18:42:01 16° S
Cosmos 2333 Rocket 4.1 18:41:08 10° N 18:42:44 16° N 18:42:44 16° N
ARGOS 4.0 18:40:57 10° S 18:46:11 50° W 18:51:27 10° NNW
Cosmos 1818 3.8 18:42:22 10° NW 18:47:48 66° WSW 18:49:43 40° S
GEOS 3 Rocket 3.8 18:54:52 63° NNW 18:54:52 63° NNW 18:59:15 10° NW
Meteor 1-27 Rocket 3.9 18:57:04 10° SSW 19:01:42 63° SSW 19:01:42 63° SSW
USA 267 4.1 19:03:55 34° N 19:05:12 38° NNW 19:11:06 10° W
Cosmos 2219 Rocket 4.4 19:01:35 10° N 19:02:19 13° N 19:02:19 13° N
CZ-2C R/B 4.2 19:03:18 11° N 19:07:41 31° WNW 19:12:11 10° SW
CZ-4C R/B 4.3 19:12:27 10° NW 19:19:18 38° WSW 19:26:58 10° S
Lacrosse 5 rocket 3.9 19:19:14 10° WNW 19:20:27 18° WNW 19:20:27 18° WNW
Cosmos 2360 Rocket 4.0 19:31:59 10° NNW 19:33:59 23° NNW 19:33:59 23° NNW
ATLAS 2AS CENTAUR R/B 4.4 19:37:58 10° NNW 19:41:27 23° N 19:41:27 23° N
Cosmos 2322 Rocket 4.0 19:52:49 10° NW 19:55:46 27° WNW 19:55:46 27° WNW
